Location: Newark
(44.3681°N, 100.3364°W)
Time: 21:47:57
(UTC+00:00)

Transit 2A Rocket - Visible Passes

Search period start: 17 February 2020 00:00
Search period end: 27 February 2020 00:00
Orbit: 592 x 911 km, 66.7° (Epoch: 16 February)

Date Brightness Start Highest point End Pass type
(mag) Time Alt. Az. Time Alt. Az. Time Alt. Az.
18 Feb 7.4 12:43:43 10° N 12:46:16 14° NE 12:48:56 10° ENE visible
20 Feb 7.0 13:00:07 10° N 13:04:21 26° NE 13:08:52 10° ESE visible
21 Feb 7.4 12:18:04 10° N 12:21:28 18° NE 12:25:02 10° E visible
22 Feb 7.6 11:36:22 10° N 11:38:28 12° NNE 11:40:36 10° ENE visible
23 Feb 6.6 12:34:46 10° NNW 12:39:24 34° NE 12:44:26 10° ESE visible
24 Feb 7.2 11:52:35 10° N 11:56:36 23° NE 12:00:53 10° E visible
25 Feb 7.5 11:10:36 10° N 11:13:41 16° NE 11:16:54 10° ENE visible
25 Feb 5.4 12:51:53 10° NNW 12:57:04 73° ENE 13:02:44 10° SE visible
26 Feb 7.8 10:29:11 10° NNE 10:30:38 11° NNE 10:32:06 10° NE visible
26 Feb 6.1 12:09:28 10° NNW 12:14:26 45° NE 12:19:49 10° SE visible
